FW2418 Weather Reports


time (UTC)temp
C
wind
direction
speed
KPH
gust
KPH
rain 1hr
cm
rain 24hr
cm
rain mn
cm
humidity
%
barometer
mb
20260831105616 23 11 0.0 0.0 0.00 0.00 0.00 99 1014.0
20260831104615 23 10 0.0 0.0 0.00 0.00 0.00 99 1014.0
20260831103614 23 11 0.0 0.0 0.00 0.00 0.00 99 1013.7
20260831102613 23 11 0.0 0.0 0.00 0.00 0.00 99 1013.7
20260831101541 23 10 0.0 0.0 0.00 0.00 0.00 99 1013.7
20260831100540 23 11 0.0 0.0 0.00 0.00 0.00 99 1013.7
20260831095539 23 10 0.0 0.0 0.00 0.00 0.00 99 1013.7
20260831094539 23 10 0.0 0.0 0.00 0.00 0.00 99 1013.7
20260831093538 23 11 0.0 0.0 0.00 0.00 0.00 99 1013.3
20260831092537 23 11 0.0 0.0 0.00 0.00 0.00 99 1013.7
20260831091536 23 11 0.0 0.0 0.00 0.00 0.00 99 1013.7
20260831090535 23 10 0.0 0.0 0.00 0.00 0.00 99 1013.7
20260831085504 23 11 0.0 0.0 0.00 0.00 0.00 99 1013.3
20260831084503 23 10 0.0 0.0 0.00 0.00 0.00 99 1013.7
20260831083430 23 11 0.0 0.0 0.00 0.00 0.00 99 1013.7
20260831082430 23 10 0.0 0.0 0.00 0.00 0.00 99 1013.7
20260831081429 23 11 0.0 0.0 0.00 0.00 0.00 98 1013.7
20260831080428 23 10 0.0 0.0 0.00 0.00 0.00 98 1013.7
20260831075427 23 11 0.0 0.0 0.00 0.00 0.00 98 1014.0
20260831074426 23 10 0.0 0.0 0.00 0.00 0.00 98 1014.0
20260831073252 23 11 0.0 0.0 0.00 0.00 0.00 98 1014.0
20260831072252 23 10 0.0 0.0 0.00 0.00 0.00 98 1014.0
20260831071251 23 10 0.0 0.0 0.00 0.00 0.00 98 1014.0
20260831070219 23 10 0.0 0.0 0.00 0.00 0.00 98 1014.0
20260831065218 23 10 0.0 0.0 0.00 0.00 0.00 98 1014.4
20260831064043 23 10 0.0 0.0 0.00 0.00 0.00 98 1014.4
20260831063043 24 11 0.0 0.0 0.00 0.00 0.00 98 1014.4
20260831062042 23 11 0.0 0.0 0.00 0.00 0.00 98 1014.4
20260831061010 23 11 0.0 0.0 0.00 0.00 0.00 98 1014.4
20260831060009 24 11 0.0 0.0 0.00 0.00 0.00 98 1014.7
20260831055009 24 10 0.0 0.0 0.00 0.00 0.00 98 1014.7
20260831054008 24 11 0.0 0.0 0.00 0.00 0.00 98 1014.7
20260831052936 24 11 0.0 0.0 0.00 0.00 0.00 98 1014.7
20260831051935 24 11 0.0 0.0 0.00 0.00 0.00 98 1014.7
20260831050934 24 10 0.0 0.0 0.00 0.00 0.00 98 1014.7
20260831045934 24 10 0.0 0.0 0.00 0.00 0.00 98 1014.7
20260831044933 24 11 0.0 0.0 0.00 0.00 0.00 97 1014.7
20260831043932 25 10 0.0 0.0 0.00 0.00 0.00 97 1014.7
20260831042931 25 10 0.0 0.0 0.00 0.00 0.00 97 1014.7
20260831041931 25 10 0.0 0.0 0.00 0.00 0.00 97 1014.7
20260831040930 25 10 0.0 0.0 0.00 0.00 0.00 97 1014.7
20260831035929 25 10 0.0 0.0 0.00 0.00 0.00 96 1014.7
20260831034928 25 11 0.0 0.0 0.00 0.00 0.00 96 1014.7
20260831033927 25 10 0.0 1.6 0.00 0.00 0.00 96 1014.7
20260831032926 25 10 0.0 1.6 0.00 0.00 0.00 96 1014.7
20260831031925 25 11 1.6 1.6 0.00 0.00 0.00 96 1015.1
20260831030925 25 10 0.0 0.0 0.00 0.00 0.00 96 1015.1
20260831025822 26 10 0.0 0.0 0.00 0.00 0.00 95 1015.1
20260831024821 26 10 0.0 0.0 0.00 0.00 0.00 95 1015.1
20260831023820 26 10 0.0 0.0 0.00 0.00 0.00 95 1015.1
20260831022820 26 11 0.0 0.0 0.00 0.00 0.00 94 1015.1
20260831021819 26 11 0.0 1.6 0.00 0.00 0.00 94 1015.1
20260831020818 26 23 1.6 3.2 0.00 0.00 0.00 93 1015.1
20260831015817 26 15 0.0 1.6 0.00 0.00 0.00 93 1015.0
20260831014817 26 32 0.0 1.6 0.00 0.00 0.00 93 1015.0
20260831013816 27 32 0.0 1.6 0.00 0.00 0.00 92 1015.0
20260831012815 27 34 0.0 1.6 0.00 0.00 0.00 91 1015.0
20260831011744 27 34 0.0 1.6 0.00 0.00 0.00 91 1015.0
20260831010742 27 36 1.6 1.6 0.00 0.00 0.00 91 1015.0
20260831005742 27 113 1.6 1.6 0.00 0.00 0.00 90 1015.0
20260831004741 27 113 0.0 1.6 0.00 0.00 0.00 90 1015.0
20260831003740 27 82 1.6 3.2 0.00 0.00 0.00 89 1014.7
20260831002739 27 108 0.0 3.2 0.00 0.00 0.00 89 1015.0
20260831001738 27 40 1.6 4.8 0.00 0.00 0.00 88 1014.7
20260831000737 27 79 1.6 6.4 0.00 0.00 0.00 88 1014.7
20260830235705 28 66 1.6 6.4 0.00 0.00 0.00 88 1014.4
20260830234704 28 51 1.6 6.4 0.00 0.00 0.00 88 1014.4
20260830233703 28 14 1.6 4.8 0.00 0.00 0.00 88 1014.4
20260830232703 28 51 1.6 6.4 0.00 0.00 0.00 87 1014.4
20260830231631 28 64 3.2 6.4 0.00 0.00 0.00 86 1014.4
20260830230630 28 111 1.6 4.8 0.00 0.00 0.00 85 1014.4
20260830225629 28 24 1.6 4.8 0.00 0.00 0.00 85 1014.4
20260830224629 28 100 3.2 4.8 0.00 0.00 0.00 84 1014.4
20260830223557 28 42 3.2 6.4 0.00 0.00 0.00 84 1014.4
20260830222556 29 19 1.6 9.7 0.00 0.00 0.00 84 1014.4
20260830221555 29 26 1.6 11.3 0.00 0.00 0.00 83 1014.0
20260830220523 29 75 3.2 8.0 0.00 0.00 0.00 83 1014.0
20260830215522 29 93 3.2 9.7 0.00 0.00 0.00 83 1014.0
20260830214348 29 47 3.2 4.8 0.00 0.00 0.00 82 1014.0
20260830213347 29 24 1.6 6.4 0.00 0.00 0.00 82 1013.7
20260830212346 29 121 1.6 8.0 0.00 0.00 0.00 82 1013.7
20260830211345 29 86 1.6 8.0 0.00 0.00 0.00 82 1013.7
20260830210344 29 76 3.2 12.9 0.00 0.00 0.00 81 1014.0
20260830205312 29 73 1.6 12.9 0.00 0.00 0.00 81 1014.0
20260830204240 30 119 3.2 11.3 0.00 0.00 0.00 80 1014.0
20260830203239 30 116 3.2 11.3 0.00 0.00 0.00 80 1014.0
20260830202238 30 150 3.2 16.1 0.00 0.00 0.00 80 1014.0
20260830201238 30 97 3.2 16.1 0.00 0.00 0.00 77 1014.0
20260830200237 31 122 6.4 14.5 0.00 0.00 0.00 75 1014.4
20260830195236 31 118 4.8 16.1 0.00 0.00 0.00 74 1014.4
20260830194235 32 97 3.2 16.1 0.00 0.00 0.00 71 1014.4
20260830193234 33 114 3.2 14.5 0.00 0.00 0.00 68 1014.4
20260830192233 33 87 3.2 14.5 0.00 0.00 0.00 63 1014.4
20260830191233 33 39 3.2 14.5 0.00 0.00 0.00 61 1014.4
20260830190201 33 53 4.8 11.3 0.00 0.00 0.00 63 1014.4
20260830185200 33 56 3.2 12.9 0.00 0.00 0.00 62 1014.4
20260830184159 33 122 3.2 14.5 0.00 0.00 0.00 63 1014.4
20260830183158 34 60 3.2 16.1 0.00 0.00 0.00 62 1014.7
20260830182157 34 126 3.2 9.7 0.00 0.00 0.00 62 1014.7
20260830181156 33 63 4.8 11.3 0.00 0.00 0.00 64 1014.7
20260830180155 32 32 4.8 12.9 0.00 0.00 0.00 67 1014.7
20260830175154 33 80 4.8 9.7 0.00 0.00 0.00 66 1015.1
20260830174123 32 82 3.2 12.9 0.00 0.00 0.00 68 1015.1
20260830173122 31 28 3.2 14.5 0.00 0.00 0.00 72 1015.4
20260830172121 32 0 4.8 16.1 0.00 0.00 0.00 71 1015.4
20260830171050 32 15 3.2 9.7 0.00 0.00 0.00 70 1015.4
20260830170049 32 6 3.2 8.0 0.00 0.00 0.00 69 1015.7
20260830165048 33 77 0.0 9.7 0.00 0.00 0.00 67 1015.7
20260830164047 33 134 1.6 6.4 0.00 0.00 0.00 65 1016.1
20260830163046 32 18 1.6 9.7 0.00 0.00 0.00 70 1016.1
20260830162045 32 59 3.2 8.0 0.00 0.00 0.00 70 1015.7
20260830161045 32 25 1.6 9.7 0.00 0.00 0.00 72 1015.7
20260830160044 31 127 3.2 11.3 0.00 0.00 0.00 72 1015.7
20260830155043 31 179 1.6 6.4 0.00 0.00 0.00 74 1016.1
20260830154042 31 74 1.6 6.4 0.00 0.00 0.00 76 1016.1
20260830153041 31 51 1.6 6.4 0.00 0.00 0.00 75 1016.4
20260830152040 31 86 1.6 8.0 0.00 0.00 0.00 74 1016.4
20260830151008 31 82 3.2 9.7 0.00 0.00 0.00 75 1016.4
20260830145936 31 24 3.2 8.0 0.00 0.00 0.00 75 1016.4
20260830144936 31 100 3.2 8.0 0.00 0.00 0.00 76 1016.4
20260830143935 30 29 1.6 6.4 0.00 0.00 0.00 78 1016.4
20260830142934 30 76 1.6 9.7 0.00 0.00 0.00 78 1016.4
20260830141933 29 63 3.2 9.7 0.00 0.00 0.00 81 1016.4
20260830140932 29 41 3.2 6.4 0.00 0.00 0.00 82 1016.4
20260830135931 28 43 1.6 8.0 0.00 0.00 0.00 85 1016.4
20260830134931 28 10 1.6 3.2 0.00 0.00 0.00 87 1016.4
20260830133930 28 62 1.6 1.6 0.00 0.00 0.00 89 1016.7
20260830132929 27 38 1.6 3.2 0.00 0.00 0.00 91 1016.4
20260830131857 27 4 1.6 1.6 0.00 0.00 0.00 91 1016.4
20260830130856 27 5 1.6 1.6 0.00 0.00 0.00 90 1016.4
20260830125824 27 0 1.6 1.6 0.00 0.00 0.00 91 1016.4
20260830124752 26 341 0.0 1.6 0.00 0.00 0.00 94 1016.1
20260830123751 25 44 0.0 1.6 0.00 0.00 0.00 98 1016.0
20260830122750 25 36 0.0 1.6 0.00 0.00 0.00 99 1016.0
20260830121749 23 334 0.0 1.6 0.00 0.00 0.00 100 1016.0
20260830120748 23 334 0.0 0.0 0.00 0.00 0.00 100 1016.0
20260830115748 23 334 0.0 0.0 0.00 0.00 0.00 99 1015.7
20260830114747 22 334 0.0 0.0 0.00 0.00 0.00 99 1015.7
20260830113746 22 334 0.0 0.0 0.00 0.00 0.00 99 1015.4
20260830112745 22 335 0.0 0.0 0.00 0.00 0.00 99 1015.4
20260830111744 22 334 0.0 0.0 0.00 0.00 0.00 99 1015.0
20260830110743 22 334 0.0 0.0 0.00 0.00 0.00 99 1015.0